Regional Weather Roundup
Issued by NWS

Home | Current Version | Previous Version | Graphics & Text | Print | Product List | Glossary On
Versions: 1 2 3 4 5 6 7 8 9 10 11 12 13 14 15 16 17 18 19 20 21 22 23 24 25 26 27 28 29 30 31 32 33 34 35 36 37 38 39 40 41 42 43 44 45 46 47 48 49 50
000
ASUS43 KLOT 170003
RWRIL

ILLINOIS REGIONAL WEATHER ROUNDUP
NATIONAL WEATHER SERVICE CHICAGO/ROMEOVILLE IL
600 PM CST TUE JAN 16 2018

NOTE: "FAIR" INDICATES FEW OR NO CLOUDS BELOW 12,000 FEET WITH NO
SIGNIFICANT WEATHER AND/OR OBSTRUCTIONS TO VISIBILITY.

* THESE STATIONS ARE NOT UNDER NWS QUALITY CONTROL. THEY ALSO MAY NOT
  REPORT WEATHER SUCH AS PRECIPITATION OR FOG.

ILZ001-002-007-009-015-016-024-170100-
NORTHWEST ILLINOIS

CITY           SKY/WX    TMP DP  RH WIND       PRES   REMARKS
MOLINE         FAIR      12   5  73 W10       30.61R WCI  -1
6HR MIN TEMP:  12; 6HR MAX TEMP:  17; 6HR PCP: TRACE;

STERLING*      FAIR      11   7  84 W9        30.58R WCI  -2
SAVANNA*       FAIR      14   7  75 NW9       30.59R WCI   2
$$

ILZ003-004-008-010-011-017-018-170100-
NORTH CENTRAL ILLINOIS

CITY           SKY/WX    TMP DP  RH WIND       PRES   REMARKS
ROCKFORD       FAIR      13   6  74 W7        30.56R WCI   3
6HR MIN TEMP:  13; 6HR MAX TEMP:  20;

FREEPORT*      FAIR      13   7  78 W7        30.56S WCI   3
ROCHELLE*      FAIR      14   9  79 NW9       30.55R WCI   2
DE KALB*       FAIR      14   9  79 W14       30.53R WCI  -1
PERU*          FAIR      12   7  81 W10       30.57S WCI  -1
$$

ILZ005-006-012>014-019>023-170100-
NORTHEAST ILLINOIS

CITY           SKY/WX    TMP DP  RH WIND       PRES   REMARKS
CHICAGO-OHARE  FAIR      20   9  62 NW13      30.50R WCI   7
6HR MIN TEMP:  20; 6HR MAX TEMP:  26; 6HR PCP: TRACE;

CHICAGO-MIDWAY FAIR      21  11  65 NW14      30.50R WCI   8
6HR MIN TEMP:  21; 6HR MAX TEMP:  25; 6HR PCP: TRACE;

AURORA         FAIR      11   6  81 W13       30.53R WCI  -4
6HR MIN TEMP:  11; 6HR MAX TEMP:  19;

LANSING*       CLOUDY    20  15  78 W8        30.50R WCI  11
JOLIET*        MOCLDY    18  11  75 W7        30.54R WCI   9
WAUKEGAN       FAIR      20   9  62 NW8       30.49R WCI  10
6HR MIN TEMP:  20; 6HR MAX TEMP:  28; 6HR PCP: TRACE;

DUPAGE AIRPORT FAIR      16   9  74 NW8       30.51R WCI   5
6HR MIN TEMP:  16; 6HR MAX TEMP:  21;

KANKAKEE*      FAIR      11   6  81 W10       30.54R WCI  -3
WHEELING       FAIR      20  10  65 NW7       30.52R WCI  11
6HR MIN TEMP:  20; 6HR MAX TEMP:  25;

MORRIS*        FAIR      12   6  79 W9        30.54R WCI  -1
ROMEOVILLE*    CLOUDY    17  11  79 NW12      30.52R WCI   4
NORTHERLY ISL    N/A     23  11  60 NW10        N/A  WCI  13
$$

LMZ740>746-170100-
SOUTHERN LAKE MICHIGAN

STATION/POSITION SKY/WX   TEMP    WIND        PRES    VSBY  WAVE
                          AIR SEA DIR/SP/G                  HT/PER
                          (F)     (DEG/KT/KT) (MB)    (MI)  (FT/S)
HARRISON CRIB              24     310/ 20/ 22   N/A
BURNHAM HARBOR             22     300/  8/ 17   N/A
CALUMET HARBOR             23     300/  6/ 10 1031.6R
BURNS HARBOR               25     320/ 14/ 22 1031.8R
MICHIGAN CITY                     130/  7/  8   N/A
$$

ILZ025>027-034>036-040-047-049-050-058-095>099-170100-
WEST-CENTRAL ILLINOIS

CITY           SKY/WX    TMP DP  RH WIND       PRES   REMARKS
QUINCY         CLOUDY     9   2  73 W12       30.65R WCI  -6
MACOMB*        PTCLDY     7   3  82 W9        30.67R WCI  -6
JACKSONVILLE*  MOCLDY     6   0  73 W6        30.66R WCI  -4
PITTSFIELD*    CLOUDY     9   2  73 W6        30.67R WCI  -1
$$

ILZ028>032-037-038-041>044-048-051>054-059>061-170100-
CENTRAL ILLINOIS

CITY           SKY/WX    TMP DP  RH WIND       PRES   REMARKS
PONTIAC        FAIR      11   9  90 W12       30.57R WCI  -3
BLOOMINGTON    FAIR       8   5  87 W14       30.57R WCI  -8
DECATUR        CLOUDY     8   5  87 W12       30.61R WCI  -7
PEORIA         FAIR       9   3  77 W10       30.62R WCI  -5
6HR MIN TEMP:   7; 6HR MAX TEMP:  13; 6HR PCP:  0.19;

LACON*         FAIR      12   7  80 W6        30.59S WCI   2
LINCOLN*       FLURRIES  11   7  82 W7        30.62R WCI   1
SPRINGFIELD    CLOUDY    10   3  73 W12       30.64R WCI  -5
6HR MIN TEMP:   6; 6HR MAX TEMP:  11;

TAYLORVILLE    CLOUDY     8   2  77 W10       30.64R WCI  -6
6HR MIN TEMP:   4; 6HR MAX TEMP:   9;

$$

ILZ033-039-045-046-055>057-062-063-170100-
EAST-CENTRAL ILLINOIS

CITY           SKY/WX    TMP DP  RH WIND       PRES   REMARKS
CHAMPAIGN      FAIR       3   0  87 W12       30.58R WCI -13
DANVILLE*      FLURRIES   7   3  83 W10       30.54R WCI  -8
RANTOUL*       FAIR       8   5  85 W13       30.56R WCI  -8
MATTOON        FLURRIES   6   2  83 W6        30.59R WCI  -4
PARIS*         LGT SNOW   7   4  86 W8        30.61R WCI  -6
$$

ILZ079-100>102-170100-
SOUTHWEST ILLINOIS

CITY           SKY/WX    TMP DP  RH WIND       PRES   REMARKS
ALTON          CLEAR      7   1  78 W7        30.68R WCI  -5
BELLEVILLE     CLOUDY    10   0  64 W9        30.67R WCI  -4
CAHOKIA*       CLOUDY     9   0  67 W7        30.69R WCI  -2
SPARTA*        FLURRIES  10   4  75 NW7       30.68R WCI  -1
$$

ILZ064>066-069>071-074>076-080>082-084>086-088>090-092>094-170100-
SOUTH-CENTRAL ILLINOIS

CITY           SKY/WX    TMP DP  RH WIND       PRES   REMARKS
CARBONDALE     CLOUDY    10   3  73 N12       30.67S WCI  -5
6HR MIN TEMP:   7; 6HR MAX TEMP:  11;

CAIRO*         CLOUDY    12   2  65 N7        30.68S WCI   1
EFFINGHAM*     FLURRIES   9   4  81 SW6       30.65R WCI  -1
MARION         FLURRIES   9   1  72 NW9       30.68R WCI  -5
MT. VERNON     FLURRIES   8   2  76 W3        30.67R
CENTRALIA*     FLURRIES  10   4  77 W9        30.65S WCI  -3
SALEM*         LGT SNOW  10   2  71 W7        30.65S WCI  -1
METROPOLIS*    CLOUDY    11   1  63 NW6       30.68R WCI   2
$$

ILZ067-068-072-073-078-083-087-091-170100-
SOUTHEAST ILLINOIS

CITY           SKY/WX    TMP DP  RH WIND       PRES   REMARKS
LAWRENCEVILLE  FLURRIES   7   3  84 W6        30.65R WCI  -3
FLORA*         LGT SNOW  10   3  73 W9        30.66R WCI  -3
FAIRFIELD*     FLURRIES   9   3  77 CALM      30.65S
HARRISBURG*    FLURRIES   7   1  76 CALM      30.68R
ROBINSON*      FLURRIES   6   1  78 W6        30.65R WCI  -5
CARMI*         FLURRIES   8   2  75 NW8       30.66S WCI  -5
$$

ABBREVIATIONS USED IN REMARKS
   TC - TEMPERATURE IN CELSIUS
  WCI - WIND CHILL INDEX
   HX - HEAT INDEX
  VSB - VISIBILITY
$$





USA.gov is the U.S. government's official web portal to all federal, state and local government web resources and services.